weather.gov     
National Weather Service

Regional Weather Roundup
NWS Homepage
This page is being discontinued on March 12, 2014.
The same data is available at this site. Please update your bookmarks.
Thank you, and we apologize for the inconvenience.
Please send an email to SR-SRH.Webmaster@noaa.gov with any concerns.


Current Version
Previous Version:    01  02  03  04  05  06  07  08  09  10  11  12  13  14  15  16  17  18  19  20  21  22  23  24  25  26  27  28  29  30  
   31  32  33  34  35  36  37  38  39  40  41  42  43  44  45  46  47  48  49  50  51  52  53  54  55  
[Printable]
791
ASCA42 TJSJ 211211
RWRPR
PUERTO RICO/U.S. VIRGIN ISLANDS HOURLY WEATHER ROUNDUP
NATIONAL WEATHER SERVICE SAN JUAN PR
800 AM AST FRI NOV 21 2014

PRZ001-004-211300-
PUERTO RICO

CITY           SKY/WX    TMP DP  RH WIND       PRES   REMARKS
SAN JUAN LMM   MOSUNNY   81  73  78 CALM      30.02R
AGUADILLA      SUNNY     75  70  83 SE6       30.03R
CEIBA          MOSUNNY   81  73  78 E9        30.04R
$$

PRZ006-007-211300-
U.S. VIRGIN ISLANDS

CITY           SKY/WX    TMP DP  RH WIND       PRES   REMARKS
CHRISTIANSTED  LGT RAIN  79  75  89 E6        30.01
$$

HOURLY WEATHER ROUNDUP FOR THE NEWS MEDIA

CITY           SKY/WX    TMP DP  RH WIND       PRES   REMARKS
MIAMI          LGT RAIN  70  69  97 NE8       30.12R VSB 1
ORLANDO        PTCLDY    55  42  61 N10       30.26R
NEW YORK       PTCLDY    29   8  41 NW22G29   30.21R WCI  15
NEWARK         PTCLDY    24   8  50 W9        30.21R WCI  14
CHICAGO        PTCLDY    11   3  70 CALM      30.40S
HARTFORD       CLEAR     27  11  51 W14       30.05R WCI  16
BOSTON         CLEAR     28  12  51 W10G22    30.04R WCI  19
DALLAS         DRIZZLE   59  58  96 SE9       30.08R FOG
PHILADELPHIA   CLEAR     29   8  41 W14       30.28R WCI  18




U.S. Dept. of Commerce
NOAA National Weather Service
1325 East West Highway
Silver Spring, MD 20910
E-mail: w-nws.webmaster@noaa.gov
Page last modified: May 16, 2007
NATIONAL WEATHER SERVICE: for Safety, for Work, for Fun - FOR LIFE